Simultaneous Nadir Overpasses (SNOs) Predictions

Prediction of SNOs between NOAA-20 and AQUA Satellite Orbit:

Table of predicted SNOs for the next 14.0 days since TLE Epoch: 9/25/2021
Index Date (NOAA-20) Time (NOAA-20) Lat,Lon (NOAA-20) SZA (NOAA-20 ) Date (AQUA) Time (AQUA) Lat,Lon (AQUA) SZA (AQUA ) Distance(km) Time Diff (sec)
1 09/25/2021 21:26:37 -63.61,-102.62 69.21 09/25/2021 21:27:50 -63.43,-101.39 69.57 64.55 73
2 09/25/2021 22:13:07 76.71, 88.09 97.11 09/25/2021 22:13:09 76.70, 88.00 97.13 2.42 2
3 09/25/2021 23:02:48 -79.29, -90.79 86.39 09/25/2021 23:01:34 -79.42, -91.29 86.27 17.61 74
4 09/28/2021 13:39:34 -75.96, 33.83 81.03 09/28/2021 13:40:29 -75.95, 33.79 81.07 1.22 55
5 09/28/2021 14:30:02 76.68,-156.26 98.12 09/28/2021 14:29:39 76.69,-156.16 98.12 2.64 23
6 10/01/2021 05:56:28 -75.97, 149.65 80.08 10/01/2021 05:56:58 -75.98, 149.75 80.13 2.86 30
7 10/01/2021 06:46:48 77.04, -39.03 98.65 10/01/2021 06:46:01 77.04, -39.00 98.68 0.81 47
8 10/03/2021 22:13:09 -76.53, -92.60 79.77 10/03/2021 22:13:15 -76.53, -92.60 79.78 0.17 6
9 10/03/2021 23:03:32 77.44, 78.46 99.12 10/03/2021 23:02:21 77.43, 78.39 99.20 1.99 71
10 10/06/2021 13:39:35 75.71,-146.98 102.14 10/06/2021 13:40:33 75.72,-146.92 102.07 1.73 58



Historial Predications of SNOs between NOAA-20 and AQUA
